| time (UTC) | temp F | wind direction | speed MPH | gust MPH | rain 1hr in | rain 24hr in | rain mn in | humidity % | barometer mb |
| 20260906180514 | 83 | 113 | 2.0 | 7.0 | 0.00 | 0.00 | 0.00 | 71 | 1016.8 |
| 20260906175534 | 82 | 23 | 2.0 | 8.0 | 0.00 | 0.00 | 0.00 | 74 | 1016.9 |
| 20260906174514 | 83 | 90 | 2.0 | 5.0 | 0.00 | 0.00 | 0.00 | 73 | 1017.1 |
| 20260906173514 | 81 | 90 | 2.0 | 5.0 | 0.00 | 0.00 | 0.00 | 75 | 1017.1 |
| 20260906172534 | 80 | 113 | 2.0 | 4.0 | 0.00 | 0.00 | 0.00 | 77 | 1017.3 |
| 20260906171514 | 80 | 0 | 2.0 | 7.0 | 0.00 | 0.00 | 0.00 | 76 | 1017.5 |
| 20260906170514 | 79 | 113 | 2.0 | 5.0 | 0.00 | 0.00 | 0.00 | 79 | 1017.5 |
| 20260906165514 | 80 | 135 | 3.0 | 7.0 | 0.00 | 0.00 | 0.00 | 76 | 1017.7 |
| 20260906164514 | 81 | 90 | 2.0 | 6.0 | 0.00 | 0.00 | 0.00 | 74 | 1017.9 |
| 20260906163554 | 81 | 135 | 2.0 | 7.0 | 0.00 | 0.00 | 0.00 | 74 | 1018.0 |
| 20260906162514 | 81 | 68 | 2.0 | 5.0 | 0.00 | 0.00 | 0.00 | 75 | 1018.0 |
| 20260906161514 | 81 | 68 | 2.0 | 5.0 | 0.00 | 0.00 | 0.00 | 73 | 1018.0 |
| 20260906160514 | 81 | 315 | 2.0 | 4.0 | 0.00 | 0.00 | 0.00 | 73 | 1017.9 |
| 20260906155534 | 81 | 158 | 2.0 | 4.0 | 0.00 | 0.00 | 0.00 | 74 | 1017.6 |
| 20260906154514 | 81 | 338 | 3.0 | 6.0 | 0.00 | 0.00 | 0.00 | 74 | 1017.6 |
| 20260906153514 | 80 | 293 | 1.0 | 4.0 | 0.00 | 0.00 | 0.00 | 76 | 1017.4 |
| 20260906152514 | 79 | 0 | 2.0 | 5.0 | 0.00 | 0.00 | 0.00 | 77 | 1017.1 |
| 20260906151514 | 79 | 68 | 3.0 | 7.0 | 0.00 | 0.00 | 0.00 | 77 | 1016.9 |
| 20260906150533 | 79 | 113 | 2.0 | 7.0 | 0.00 | 0.00 | 0.00 | 77 | 1016.7 |
| 20260906145514 | 79 | 0 | 2.0 | 6.0 | 0.00 | 0.00 | 0.00 | 77 | 1016.7 |
| 20260906144513 | 79 | 90 | 2.0 | 7.0 | 0.00 | 0.00 | 0.00 | 77 | 1016.6 |
| 20260906143513 | 80 | 338 | 2.0 | 5.0 | 0.00 | 0.00 | 0.00 | 77 | 1016.6 |
| 20260906142513 | 80 | 0 | 1.0 | 4.0 | 0.00 | 0.00 | 0.00 | 78 | 1016.6 |
| 20260906141513 | 80 | 338 | 2.0 | 6.0 | 0.00 | 0.00 | 0.00 | 78 | 1016.4 |
| 20260906140513 | 79 | 0 | 1.0 | 5.0 | 0.00 | 0.00 | 0.00 | 79 | 1016.3 |
| 20260906135513 | 79 | 338 | 2.0 | 4.0 | 0.00 | 0.00 | 0.00 | 79 | 1016.4 |
| 20260906134514 | 78 | 90 | 2.0 | 5.0 | 0.00 | 0.00 | 0.00 | 81 | 1016.4 |
| 20260906133514 | 78 | 90 | 2.0 | 4.0 | 0.00 | 0.00 | 0.00 | 82 | 1016.5 |
| 20260906132515 | 77 | 338 | 1.0 | 4.0 | 0.00 | 0.00 | 0.00 | 83 | 1016.6 |
| 20260906131516 | 77 | 338 | 1.0 | 4.0 | 0.00 | 0.00 | 0.00 | 83 | 1016.5 |
| 20260906130514 | 76 | 338 | 1.0 | 5.0 | 0.00 | 0.00 | 0.00 | 84 | 1016.4 |
| 20260906125515 | 76 | 315 | 2.0 | 5.0 | 0.00 | 0.00 | 0.00 | 85 | 1016.3 |
| 20260906124536 | 76 | 293 | 1.0 | 3.0 | 0.00 | 0.00 | 0.00 | 86 | 1016.2 |
| 20260906123515 | 75 | 315 | 2.0 | 4.0 | 0.00 | 0.00 | 0.00 | 87 | 1016.2 |
| 20260906122515 | 75 | 338 | 1.0 | 3.0 | 0.00 | 0.00 | 0.00 | 87 | 1015.9 |
| 20260906121515 | 75 | 0 | 1.0 | 3.0 | 0.00 | 0.00 | 0.00 | 87 | 1015.8 |
| 20260906120515 | 75 | 23 | 1.0 | 2.0 | 0.00 | 0.00 | 0.00 | 87 | 1015.7 |
| 20260906115536 | 75 | 0 | 1.0 | 4.0 | 0.00 | 0.00 | 0.00 | 87 | 1015.8 |
| 20260906114535 | 75 | 0 | 1.0 | 2.0 | 0.00 | 0.00 | 0.00 | 87 | 1015.8 |
| 20260906113515 | 75 | 0 | 1.0 | 3.0 | 0.00 | 0.00 | 0.00 | 87 | 1015.6 |
| 20260906112515 | 75 | 0.0 | 1.0 | 0.00 | 0.00 | 0.00 | 87 | 1015.4 | |
| 20260906111515 | 76 | 0.0 | 1.0 | 0.00 | 0.00 | 0.00 | 86 | 1015.5 | |
| 20260906110516 | 76 | 0.0 | 1.0 | 0.00 | 0.00 | 0.00 | 86 | 1015.5 | |
| 20260906105515 | 76 | 0.0 | 1.0 | 0.00 | 0.00 | 0.00 | 86 | 1015.3 | |
| 20260906104515 | 76 | 0.0 | 1.0 | 0.00 | 0.00 | 0.00 | 85 | 1015.3 | |
| 20260906103515 | 77 | 0.0 | 1.0 | 0.00 | 0.00 | 0.00 | 85 | 1015.3 | |
| 20260906102515 | 77 | 0.0 | 2.0 | 0.00 | 0.00 | 0.00 | 84 | 1015.1 | |
| 20260906101515 | 77 | 0.0 | 2.0 | 0.00 | 0.00 | 0.00 | 84 | 1015.1 | |
| 20260906100535 | 77 | 0.0 | 2.0 | 0.00 | 0.00 | 0.00 | 83 | 1015.1 | |
| 20260906095515 | 77 | 45 | 1.0 | 3.0 | 0.00 | 0.00 | 0.00 | 83 | 1015.0 |
| 20260906094515 | 77 | 68 | 1.0 | 3.0 | 0.00 | 0.00 | 0.00 | 83 | 1014.9 |
| 20260906093535 | 78 | 338 | 1.0 | 6.0 | 0.00 | 0.00 | 0.00 | 83 | 1014.8 |
| 20260906092515 | 78 | 270 | 1.0 | 6.0 | 0.00 | 0.00 | 0.00 | 83 | 1014.7 |
| 20260906091515 | 78 | 90 | 1.0 | 2.0 | 0.00 | 0.00 | 0.00 | 84 | 1014.6 |
| 20260906090515 | 78 | 0 | 1.0 | 2.0 | 0.00 | 0.00 | 0.00 | 84 | 1014.5 |
| 20260906085515 | 78 | 113 | 1.0 | 3.0 | 0.00 | 0.00 | 0.00 | 83 | 1014.4 |
| 20260906084515 | 79 | 68 | 1.0 | 3.0 | 0.00 | 0.00 | 0.00 | 83 | 1014.4 |
| 20260906083515 | 79 | 90 | 1.0 | 3.0 | 0.00 | 0.00 | 0.00 | 82 | 1014.4 |
| 20260906082515 | 79 | 90 | 1.0 | 5.0 | 0.00 | 0.00 | 0.00 | 82 | 1014.6 |
| 20260906081515 | 80 | 0.0 | 2.0 | 0.00 | 0.00 | 0.00 | 85 | 1014.5 | |
| 20260906080515 | 80 | 68 | 1.0 | 3.0 | 0.00 | 0.00 | 0.00 | 85 | 1014.5 |
| 20260906075515 | 80 | 338 | 1.0 | 3.0 | 0.00 | 0.00 | 0.00 | 85 | 1014.5 |
| 20260906074535 | 80 | 0.0 | 2.0 | 0.00 | 0.00 | 0.00 | 85 | 1014.4 | |
| 20260906073515 | 80 | 45 | 1.0 | 4.0 | 0.00 | 0.00 | 0.00 | 84 | 1014.3 |
| 20260906072515 | 81 | 0 | 1.0 | 3.0 | 0.00 | 0.00 | 0.00 | 84 | 1014.4 |
| 20260906071515 | 81 | 68 | 1.0 | 5.0 | 0.00 | 0.00 | 0.00 | 83 | 1014.3 |
| 20260906070515 | 81 | 113 | 1.0 | 3.0 | 0.00 | 0.00 | 0.00 | 82 | 1014.4 |
| 20260906065515 | 82 | 0 | 1.0 | 3.0 | 0.00 | 0.00 | 0.00 | 81 | 1014.5 |
| 20260906064515 | 82 | 45 | 1.0 | 3.0 | 0.00 | 0.00 | 0.00 | 80 | 1014.5 |
| 20260906063515 | 83 | 23 | 1.0 | 4.0 | 0.00 | 0.00 | 0.00 | 80 | 1014.7 |
| 20260906062515 | 83 | 90 | 1.0 | 3.0 | 0.00 | 0.00 | 0.00 | 79 | 1014.5 |
| 20260906061515 | 83 | 158 | 1.0 | 2.0 | 0.00 | 0.00 | 0.00 | 78 | 1014.7 |
| 20260906060535 | 84 | 338 | 1.0 | 4.0 | 0.00 | 0.00 | 0.00 | 77 | 1014.7 |
| 20260906055515 | 84 | 23 | 1.0 | 3.0 | 0.00 | 0.00 | 0.00 | 76 | 1014.8 |
| 20260906054515 | 84 | 0 | 1.0 | 3.0 | 0.00 | 0.00 | 0.00 | 76 | 1014.7 |
| 20260906053515 | 84 | 0.0 | 2.0 | 0.00 | 0.00 | 0.00 | 75 | 1014.6 | |
| 20260906052515 | 85 | 0.0 | 2.0 | 0.00 | 0.00 | 0.00 | 74 | 1014.6 | |
| 20260906051515 | 85 | 0.0 | 2.0 | 0.00 | 0.00 | 0.00 | 73 | 1014.5 | |
| 20260906050515 | 85 | 0.0 | 4.0 | 0.00 | 0.00 | 0.00 | 72 | 1014.5 | |
| 20260906045515 | 86 | 23 | 1.0 | 2.0 | 0.00 | 0.00 | 0.00 | 72 | 1014.4 |
| 20260906044535 | 86 | 23 | 1.0 | 2.0 | 0.00 | 0.00 | 0.00 | 71 | 1014.4 |
| 20260906043535 | 86 | 23 | 1.0 | 2.0 | 0.00 | 0.00 | 0.00 | 70 | 1014.3 |
| 20260906042515 | 87 | 0.0 | 3.0 | 0.00 | 0.00 | 0.00 | 69 | 1014.2 | |
| 20260906041515 | 87 | 23 | 1.0 | 3.0 | 0.00 | 0.00 | 0.00 | 69 | 1014.2 |
| 20260906040515 | 87 | 45 | 1.0 | 2.0 | 0.00 | 0.00 | 0.00 | 68 | 1014.2 |
| 20260906035515 | 87 | 0 | 1.0 | 4.0 | 0.00 | 0.00 | 0.00 | 67 | 1013.9 |
| 20260906034515 | 87 | 0 | 1.0 | 3.0 | 0.00 | 0.00 | 0.00 | 67 | 1013.9 |
| 20260906033515 | 86 | 45 | 1.0 | 3.0 | 0.00 | 0.00 | 0.00 | 68 | 1013.8 |
| 20260906032515 | 85 | 0 | 1.0 | 2.0 | 0.00 | 0.00 | 0.00 | 68 | 1013.7 |
| 20260906031515 | 85 | 0.0 | 2.0 | 0.00 | 0.00 | 0.00 | 68 | 1013.6 | |
| 20260906030515 | 85 | 0.0 | 0.0 | 0.00 | 0.00 | 0.00 | 68 | 1013.5 | |
| 20260906025515 | 85 | 0.0 | 0.0 | 0.00 | 0.00 | 0.00 | 66 | 1013.4 | |
| 20260906024515 | 85 | 0.0 | 0.0 | 0.00 | 0.00 | 0.00 | 66 | 1013.3 | |
| 20260906023535 | 86 | 0.0 | 0.0 | 0.00 | 0.00 | 0.00 | 64 | 1013.2 | |
| 20260906022555 | 86 | 0.0 | 0.0 | 0.00 | 0.00 | 0.00 | 64 | 1013.0 | |
| 20260906021516 | 87 | 0.0 | 2.0 | 0.00 | 0.00 | 0.00 | 62 | 1012.9 | |
| 20260906020515 | 88 | 0.0 | 0.0 | 0.00 | 0.00 | 0.00 | 61 | 1012.8 | |
| 20260906015515 | 88 | 0.0 | 0.0 | 0.00 | 0.00 | 0.00 | 59 | 1012.6 | |
| 20260906014515 | 89 | 0.0 | 0.0 | 0.00 | 0.00 | 0.00 | 59 | 1012.5 | |
| 20260906013515 | 90 | 0.0 | 2.0 | 0.00 | 0.00 | 0.00 | 57 | 1012.4 | |
| 20260906012515 | 90 | 0.0 | 2.0 | 0.00 | 0.00 | 0.00 | 55 | 1012.3 | |
| 20260906011515 | 91 | 0.0 | 1.0 | 0.00 | 0.00 | 0.00 | 54 | 1012.2 | |
| 20260906010515 | 91 | 0 | 1.0 | 2.0 | 0.00 | 0.00 | 0.00 | 53 | 1012.1 |
| 20260906005515 | 93 | 0.0 | 2.0 | 0.00 | 0.00 | 0.00 | 51 | 1012.0 | |
| 20260906004515 | 94 | 0.0 | 1.0 | 0.00 | 0.00 | 0.00 | 49 | 1011.9 | |
| 20260906003515 | 94 | 0 | 1.0 | 3.0 | 0.00 | 0.00 | 0.00 | 48 | 1011.8 |
| 20260906002515 | 95 | 0 | 1.0 | 3.0 | 0.00 | 0.00 | 0.00 | 48 | 1011.8 |
| 20260906001515 | 96 | 0 | 2.0 | 5.0 | 0.00 | 0.00 | 0.00 | 46 | 1011.9 |
| 20260906000515 | 97 | 0.0 | 2.0 | 0.00 | 0.00 | 0.00 | 45 | 1011.8 | |
| 20260905235514 | 97 | 0 | 1.0 | 2.0 | 0.00 | 0.00 | 0.00 | 45 | 1011.7 |
| 20260905234514 | 98 | 315 | 1.0 | 4.0 | 0.00 | 0.00 | 0.00 | 44 | 1011.9 |
| 20260905233515 | 98 | 0 | 2.0 | 4.0 | 0.00 | 0.00 | 0.00 | 42 | 1012.0 |
| 20260905232515 | 99 | 338 | 2.0 | 6.0 | 0.00 | 0.00 | 0.00 | 42 | 1012.1 |
| 20260905231515 | 99 | 0 | 1.0 | 5.0 | 0.00 | 0.00 | 0.00 | 42 | 1012.0 |
| 20260905230515 | 100 | 315 | 2.0 | 5.0 | 0.00 | 0.00 | 0.00 | 42 | 1012.1 |
| 20260905225515 | 100 | 0 | 2.0 | 6.0 | 0.00 | 0.00 | 0.00 | 42 | 1012.0 |
| 20260905224515 | 100 | 0 | 2.0 | 5.0 | 0.00 | 0.00 | 0.00 | 43 | 1012.0 |
| 20260905223515 | 99 | 270 | 2.0 | 5.0 | 0.00 | 0.00 | 0.00 | 43 | 1012.0 |
| 20260905222515 | 99 | 338 | 2.0 | 5.0 | 0.00 | 0.00 | 0.00 | 42 | 1011.9 |
| 20260905221515 | 100 | 293 | 2.0 | 5.0 | 0.00 | 0.00 | 0.00 | 42 | 1012.0 |
| 20260905220515 | 100 | 315 | 2.0 | 6.0 | 0.00 | 0.00 | 0.00 | 41 | 1012.1 |
| 20260905215515 | 100 | 315 | 3.0 | 6.0 | 0.00 | 0.00 | 0.00 | 41 | 1012.1 |
| 20260905214514 | 100 | 315 | 2.0 | 4.0 | 0.00 | 0.00 | 0.00 | 40 | 1012.1 |
| 20260905213514 | 99 | 135 | 1.0 | 3.0 | 0.00 | 0.00 | 0.00 | 40 | 1012.0 |
| 20260905212514 | 99 | 0 | 2.0 | 4.0 | 0.00 | 0.00 | 0.00 | 42 | 1011.9 |
| 20260905211514 | 98 | 293 | 2.0 | 6.0 | 0.00 | 0.00 | 0.00 | 44 | 1012.0 |
| 20260905210515 | 97 | 293 | 3.0 | 5.0 | 0.00 | 0.00 | 0.00 | 44 | 1012.1 |
| 20260905205514 | 97 | 203 | 3.0 | 6.0 | 0.00 | 0.00 | 0.00 | 43 | 1012.2 |
| 20260905204514 | 100 | 0 | 2.0 | 6.0 | 0.00 | 0.00 | 0.00 | 40 | 1012.5 |
| 20260905203514 | 100 | 0 | 3.0 | 7.0 | 0.00 | 0.00 | 0.00 | 38 | 1012.3 |
| 20260905202514 | 103 | 45 | 1.0 | 3.0 | 0.00 | 0.00 | 0.00 | 35 | 1012.4 |
| 20260905201514 | 104 | 270 | 3.0 | 6.0 | 0.00 | 0.00 | 0.00 | 34 | 1012.5 |
| 20260905200514 | 105 | 0 | 3.0 | 6.0 | 0.00 | 0.00 | 0.00 | 34 | 1012.6 |
| 20260905195515 | 104 | 0 | 3.0 | 7.0 | 0.00 | 0.00 | 0.00 | 35 | 1012.7 |
| 20260905194514 | 104 | 338 | 2.0 | 7.0 | 0.00 | 0.00 | 0.00 | 36 | 1012.8 |
| 20260905193534 | 103 | 293 | 3.0 | 8.0 | 0.00 | 0.00 | 0.00 | 35 | 1013.1 |
| 20260905192514 | 102 | 293 | 2.0 | 5.0 | 0.00 | 0.00 | 0.00 | 35 | 1013.1 |
| 20260905191514 | 104 | 293 | 3.0 | 7.0 | 0.00 | 0.00 | 0.00 | 35 | 1013.2 |
| 20260905190514 | 104 | 338 | 3.0 | 5.0 | 0.00 | 0.00 | 0.00 | 37 | 1013.3 |
| 20260905185514 | 103 | 338 | 4.0 | 7.0 | 0.00 | 0.00 | 0.00 | 39 | 1013.4 |
| 20260905184514 | 102 | 0 | 2.0 | 5.0 | 0.00 | 0.00 | 0.00 | 39 | 1013.5 |
| 20260905183514 | 103 | 270 | 3.0 | 8.0 | 0.00 | 0.00 | 0.00 | 38 | 1013.6 |
| 20260905182514 | 103 | 23 | 2.0 | 4.0 | 0.00 | 0.00 | 0.00 | 39 | 1013.7 |
| 20260905181514 | 102 | 315 | 2.0 | 5.0 | 0.00 | 0.00 | 0.00 | 40 | 1013.8 |